| time (UTC) | temp C | wind direction | speed KPH | gust KPH | rain 1hr cm | rain 24hr cm | rain mn cm | humidity % | barometer mb |
| 20260507050039 | 7 | 248 | 0.0 | 3.2 | 0.00 | 0.76 | 0.00 | 91 | 1010.6 |
| 20260507044539 | 7 | 248 | 1.6 | 4.8 | 0.00 | 0.76 | 0.00 | 91 | 1010.8 |
| 20260507043040 | 7 | 248 | 1.6 | 3.2 | 0.00 | 0.76 | 0.00 | 90 | 1010.7 |
| 20260507041535 | 6 | 331 | 3.2 | 4.8 | 0.00 | 0.76 | 0.00 | 90 | 1010.5 |
| 20260507040035 | 6 | 331 | 0.0 | 4.8 | 0.00 | 0.76 | 0.00 | 90 | 1010.3 |
| 20260507034532 | 6 | 331 | 1.6 | 4.8 | 0.00 | 0.76 | 0.76 | 90 | 1010.5 |
| 20260507033032 | 7 | 331 | 1.6 | 3.2 | 0.00 | 0.76 | 0.76 | 90 | 1010.3 |
| 20260507031529 | 7 | 331 | 0.0 | 1.6 | 0.00 | 0.76 | 0.76 | 89 | 1010.4 |
| 20260507030031 | 7 | 331 | 0.0 | 3.2 | 0.00 | 0.76 | 0.76 | 89 | 1010.3 |
| 20260507024528 | 7 | 331 | 0.0 | 4.8 | 0.00 | 0.76 | 0.76 | 89 | 1010.8 |
| 20260507023029 | 7 | 331 | 0.0 | 3.2 | 0.00 | 0.76 | 0.76 | 89 | 1010.8 |
| 20260507021525 | 7 | 331 | 0.0 | 3.2 | 0.00 | 0.76 | 0.76 | 89 | 1011.0 |
| 20260507020024 | 7 | 331 | 1.6 | 3.2 | 0.00 | 0.76 | 0.76 | 88 | 1011.1 |
| 20260507014525 | 7 | 331 | 0.0 | 3.2 | 0.00 | 0.76 | 0.76 | 88 | 1011.0 |
| 20260507013033 | 7 | 331 | 1.6 | 4.8 | 0.00 | 0.76 | 0.76 | 88 | 1010.7 |
| 20260507011534 | 7 | 331 | 1.6 | 4.8 | 0.00 | 0.76 | 0.76 | 88 | 1010.9 |
| 20260507010020 | 7 | 331 | 0.0 | 3.2 | 0.00 | 0.76 | 0.76 | 87 | 1010.6 |
| 20260507004519 | 7 | 331 | 0.0 | 3.2 | 0.00 | 0.76 | 0.76 | 87 | 1010.4 |
| 20260507003019 | 7 | 331 | 0.0 | 3.2 | 0.00 | 0.76 | 0.76 | 87 | 1010.2 |
| 20260507001515 | 7 | 331 | 0.0 | 3.2 | 0.00 | 0.76 | 0.76 | 87 | 1010.2 |
| 20260507000014 | 7 | 331 | 0.0 | 3.2 | 0.00 | 0.76 | 0.76 | 87 | 1009.7 |
| 20260506234513 | 7 | 331 | 0.0 | 3.2 | 0.00 | 0.76 | 0.76 | 87 | 1009.7 |
| 20260506233013 | 7 | 331 | 1.6 | 4.8 | 0.00 | 0.76 | 0.76 | 87 | 1009.7 |
| 20260506231511 | 7 | 331 | 0.0 | 3.2 | 0.00 | 0.76 | 0.76 | 87 | 1009.6 |
| 20260506230010 | 7 | 331 | 1.6 | 3.2 | 0.00 | 0.76 | 0.76 | 87 | 1009.5 |
| 20260506224516 | 7 | 331 | 1.6 | 4.8 | 0.00 | 0.76 | 0.76 | 87 | 1009.4 |
| 20260506223008 | 7 | 330 | 1.6 | 12.9 | 0.00 | 0.76 | 0.76 | 87 | 1009.2 |
| 20260506221506 | 8 | 325 | 3.2 | 14.5 | 0.00 | 0.76 | 0.76 | 87 | 1009.0 |
| 20260506220006 | 8 | 315 | 4.8 | 16.1 | 0.00 | 0.76 | 0.76 | 88 | 1008.8 |
| 20260506214505 | 8 | 324 | 3.2 | 14.5 | 0.00 | 0.76 | 0.76 | 89 | 1008.9 |
| 20260506213002 | 8 | 288 | 3.2 | 19.3 | 0.00 | 0.76 | 0.76 | 90 | 1008.7 |
| 20260506211559 | 8 | 288 | 3.2 | 11.3 | 0.00 | 0.76 | 0.76 | 90 | 1008.4 |
| 20260506210117 | 8 | 315 | 3.2 | 8.0 | 0.00 | 0.76 | 0.76 | 91 | 1008.1 |
| 20260506204555 | 8 | 349 | 4.8 | 8.0 | 0.00 | 0.76 | 0.76 | 91 | 1007.7 |
| 20260506203139 | 8 | 310 | 1.6 | 8.0 | 0.00 | 0.76 | 0.76 | 91 | 1007.5 |
| 20260506201552 | 8 | 323 | 4.8 | 6.4 | 0.05 | 0.76 | 0.76 | 91 | 1007.0 |
| 20260506200052 | 8 | 348 | 3.2 | 8.0 | 0.05 | 0.76 | 0.76 | 91 | 1006.9 |
| 20260506194549 | 8 | 5 | 1.6 | 14.5 | 0.05 | 0.79 | 0.76 | 91 | 1007.0 |
| 20260506193045 | 8 | 304 | 3.2 | 8.0 | 0.08 | 0.79 | 0.76 | 91 | 1007.1 |
| 20260506191550 | 8 | 275 | 1.6 | 6.4 | 0.03 | 0.71 | 0.71 | 91 | 1006.7 |
| 20260506190049 | 8 | 275 | 1.6 | 4.8 | 0.03 | 0.71 | 0.71 | 91 | 1006.5 |
| 20260506184552 | 8 | 275 | 3.2 | 9.7 | 0.03 | 0.71 | 0.71 | 91 | 1006.3 |
| 20260506183041 | 9 | 279 | 1.6 | 9.7 | 0.00 | 0.71 | 0.69 | 91 | 1006.1 |
| 20260506181539 | 9 | 246 | 1.6 | 6.4 | 0.00 | 0.71 | 0.69 | 91 | 1005.9 |
| 20260506180038 | 10 | 228 | 1.6 | 6.4 | 0.00 | 0.71 | 0.69 | 91 | 1005.7 |
| 20260506174535 | 10 | 268 | 3.2 | 8.0 | 0.00 | 0.71 | 0.69 | 90 | 1005.2 |
| 20260506173039 | 11 | 222 | 1.6 | 14.5 | 0.00 | 0.71 | 0.69 | 90 | 1004.9 |
| 20260506171535 | 12 | 254 | 3.2 | 8.0 | 0.00 | 0.71 | 0.69 | 90 | 1004.6 |
| 20260506170030 | 13 | 185 | 3.2 | 9.7 | 0.03 | 0.71 | 0.69 | 91 | 1004.5 |
| 20260506164530 | 14 | 223 | 0.0 | 4.8 | 0.03 | 0.71 | 0.69 | 92 | 1004.3 |
| 20260506163047 | 13 | 200 | 3.2 | 12.9 | 0.03 | 0.71 | 0.69 | 92 | 1004.2 |
| 20260506161529 | 13 | 211 | 4.8 | 12.9 | 0.03 | 0.71 | 0.69 | 92 | 1004.2 |
| 20260506160028 | 13 | 211 | 6.4 | 16.1 | 0.03 | 0.69 | 0.66 | 92 | 1004.2 |
| 20260506154534 | 13 | 210 | 4.8 | 14.5 | 0.08 | 0.69 | 0.66 | 93 | 1004.3 |
| 20260506153028 | 13 | 245 | 4.8 | 14.5 | 0.10 | 0.69 | 0.66 | 93 | 1004.2 |
| 20260506151526 | 13 | 214 | 8.0 | 16.1 | 0.08 | 0.66 | 0.64 | 93 | 1004.2 |
| 20260506150022 | 13 | 202 | 3.2 | 9.7 | 0.08 | 0.64 | 0.61 | 93 | 1004.4 |
| 20260506144521 | 13 | 208 | 1.6 | 11.3 | 0.05 | 0.61 | 0.58 | 93 | 1004.2 |
| 20260506143019 | 13 | 163 | 1.6 | 3.2 | 0.05 | 0.58 | 0.56 | 93 | 1004.2 |
| 20260506141517 | 12 | 163 | 0.0 | 3.2 | 0.10 | 0.58 | 0.56 | 93 | 1004.3 |
| 20260506140025 | 12 | 211 | 0.0 | 4.8 | 0.15 | 0.56 | 0.53 | 93 | 1004.4 |
| 20260506134515 | 12 | 211 | 1.6 | 4.8 | 0.23 | 0.56 | 0.53 | 92 | 1004.5 |
| 20260506133015 | 12 | 211 | 0.0 | 3.2 | 0.25 | 0.51 | 0.48 | 92 | 1004.7 |
| 20260506131519 | 11 | 27 | 0.0 | 1.6 | 0.30 | 0.48 | 0.46 | 92 | 1005.2 |
| 20260506130012 | 11 | 27 | 0.0 | 3.2 | 0.25 | 0.41 | 0.38 | 92 | 1005.7 |
| 20260506124511 | 11 | 27 | 0.0 | 3.2 | 0.20 | 0.33 | 0.30 | 92 | 1005.4 |
| 20260506123010 | 11 | 27 | 0.0 | 3.2 | 0.10 | 0.23 | 0.20 | 92 | 1005.1 |
| 20260506121508 | 11 | 27 | 0.0 | 6.4 | 0.05 | 0.15 | 0.13 | 92 | 1005.0 |
| 20260506120012 | 11 | 30 | 1.6 | 3.2 | 0.05 | 0.15 | 0.13 | 91 | 1004.8 |
| 20260506114508 | 11 | 30 | 0.0 | 3.2 | 0.03 | 0.18 | 0.10 | 91 | 1005.0 |
| 20260506113006 | 11 | 30 | 0.0 | 3.2 | 0.03 | 0.18 | 0.10 | 91 | 1005.4 |
| 20260506111510 | 10 | 30 | 0.0 | 4.8 | 0.03 | 0.15 | 0.08 | 91 | 1005.5 |
| 20260506110009 | 10 | 28 | 1.6 | 8.0 | 0.03 | 0.15 | 0.08 | 91 | 1005.2 |
| 20260506104504 | 11 | 59 | 3.2 | 4.8 | 0.03 | 0.15 | 0.08 | 90 | 1005.4 |
| 20260506103003 | 11 | 130 | 0.0 | 3.2 | 0.03 | 0.15 | 0.08 | 89 | 1005.5 |
| 20260506101501 | 11 | 130 | 0.0 | 1.6 | 0.00 | 0.13 | 0.05 | 89 | 1005.1 |
| 20260506100003 | 11 | 130 | 0.0 | 1.6 | 0.03 | 0.13 | 0.05 | 89 | 1004.9 |
| 20260506094603 | 11 | 130 | 0.0 | 3.2 | 0.03 | 0.13 | 0.05 | 88 | 1005.1 |
| 20260506093101 | 11 | 130 | 0.0 | 3.2 | 0.05 | 0.13 | 0.05 | 88 | 1005.1 |
| 20260506091557 | 11 | 130 | 0.0 | 3.2 | 0.05 | 0.13 | 0.05 | 87 | 1005.1 |
| 20260506090110 | 11 | 130 | 0.0 | 3.2 | 0.03 | 0.10 | 0.03 | 87 | 1005.4 |
| 20260506084616 | 11 | 130 | 0.0 | 3.2 | 0.03 | 0.10 | 0.03 | 86 | 1005.6 |
| 20260506083054 | 11 | 130 | 0.0 | 4.8 | 0.00 | 0.08 | 0.00 | 85 | 1005.7 |
| 20260506081600 | 11 | 69 | 0.0 | 4.8 | 0.00 | 0.08 | 0.00 | 85 | 1005.8 |
| 20260506073052 | 11 | 66 | 0.0 | 1.6 | 0.00 | 0.08 | 0.00 | 85 | 1005.7 |
| 20260506071551 | 11 | 66 | 0.0 | 3.2 | 0.00 | 0.08 | 0.00 | 85 | 1005.7 |
| 20260506061549 | 12 | 65 | 0.0 | 1.6 | 0.00 | 0.08 | 0.00 | 84 | 1006.1 |